Regional Weather Roundup
Issued by NWS Little Rock, AR

Home | Current Version | Previous Version | Graphics & Text | Print | Product List | Glossary On
Versions: 1 2 3 4 5 6 7 8 9 10 11 12 13 14 15 16 17 18 19 20 21 22 23 24 25 26 27 28 29 30 31 32 33 34 35 36 37 38 39 40 41 42 43 44 45 46 47 48 49 50
000
ASUS44 KLZK 291405
RWRLZK

WEATHER ROUNDUP FOR ARKANSAS
NATIONAL WEATHER SERVICE LITTLE ROCK AR
900 AM CDT MON JUN 29 2015

NOTE: "FAIR" INDICATES FEW OR NO CLOUDS BELOW 12,000 FEET WITH NO
SIGNIFICANT WEATHER AND/OR OBSTRUCTIONS TO VISIBILITY.

ARZ001-003-010-029-291500-
NORTHWEST ARKANSAS

CITY           SKY/WX    TMP DP  RH WIND       PRES   REMARKS
FAYETTEVILLE   MOSUNNY   75  64  68 SW7       29.97R
FORT SMITH     SUNNY     80  63  55 W10       29.95R
HARRISON       MOSUNNY   76  63  64 W9        29.96R
BENTONVILLE    MOSUNNY   73  63  68 W8        29.98R
ROGERS         MOSUNNY   73  64  73 W7        29.98R
SILOAM SPGS    MOSUNNY   75  63  64 W6        29.98R
HIGHFILL       MOSUNNY   76  65  68 W8        29.97R
SPRINGDALE     MOSUNNY   75  63  64 W13       29.99R
$$

ARZ004-005-016-291500-
NORTH CENTRAL ARKANSAS

CITY           SKY/WX    TMP DP  RH WIND       PRES   REMARKS
BATESVILLE     SUNNY     81  66  61 SW9       29.91S
FLIPPIN        MOSUNNY   79  63  57 W10G16    29.90S
MTN HOME       MOSUNNY   77  66  68 VRB3      29.92R
$$

ARZ040-041-291500-
WEST CENTRAL ARKANSAS

CITY           SKY/WX    TMP DP  RH WIND       PRES   REMARKS
MENA           PTSUNNY   79  70  73 W7        30.00R
MOUNT IDA      PTSUNNY   77  67  71 W3        29.95S
$$

ARZ009-017-025-026-028-291500-
NORTHEAST ARKANSAS

CITY           SKY/WX    TMP DP  RH WIND       PRES   REMARKS
JONESBORO      MOSUNNY   78  68  71 SW15G21   29.90S
NEWPORT        MOSUNNY   79  67  66 S15       29.92S
WALNUT RIDGE   SUNNY     79  66  65 SW13      29.89S
BLYTHEVILLE    MOSUNNY   76  69  79 SW16G23   29.91R
NW BLYTHEVILLE PTSUNNY   77  68  73 SW13G21   29.90S
$$

ARZ022-023-033-042-044-291500-
CENTRAL ARKANSAS

CITY           SKY/WX    TMP DP  RH WIND       PRES   REMARKS
LITTLE ROCK    PTSUNNY   79  66  64 SW9       29.94F
N LITTLE ROCK  PTSUNNY   77  69  75 SW8       29.94F
JACKSONVILLE   MOSUNNY   80  67  66 W10       29.94
SEARCY         CLOUDY    74  69  85 CALM      29.95R
HOT SPRINGS    PTSUNNY   77  68  73 NW3       29.97S
RUSSELLVILLE   SUNNY     79  67  66 NW7       29.94S
CLINTON        FAIR      81  68  65 SW7       29.94F
$$

ARZ036-291500-
EAST ARKANSAS

CITY           SKY/WX    TMP DP  RH WIND       PRES   REMARKS
WEST MEMPHIS   CLOUDY    76  68  76 VRB6      29.94S
$$

ARZ050-053-066-070-073-291500-
SOUTHWEST ARKANSAS

CITY           SKY/WX    TMP DP  RH WIND       PRES   REMARKS
ARKADELPHIA    FAIR      78  73  84 SW5       29.98S
CAMDEN         SUNNY     81  68  65 NE6       29.98S
TEXARKANA      SUNNY     81  73  76 SW10      29.98F HX  86
EL DORADO      SUNNY     79  72  79 W8        30.00S
DE QUEEN       PTSUNNY   73  71  93 CALM      29.96R
$$

ARZ056-057-069-291500-
SOUTHEAST ARKANSAS

CITY           SKY/WX    TMP DP  RH WIND       PRES   REMARKS
PINE BLUFF     MOSUNNY   76  68  76 SW8       29.97S
STUTTGART      CLOUDY    77  66  69 SW10      29.97S
MONTICELLO     MOSUNNY   80  71  74 W8G17     29.99S

$$




USA.gov is the U.S. government's official web portal to all federal, state and local government web resources and services.